www.pogodaiklimat.ru

Погода и климат >> Архив погоды >> Индонезия >> Танджунгкаранг


ПОГОДА в Танджунгкаранге

  • Прогноз погоды в Танджунгкаранге
  • Монитор погоды в Танджунгкаранге

АРХИВ ПОГОДЫ в Танджунгкаранге

Время (UTC), дата Ветер
(напр.,м/с)
 
Видим.   Явления Облачность Т
(С)
Тd
(С)
f
(%)
Тe
(С)
Тes
(С)
Комфортность P
(гПа)
Po
(гПа)
Тmin
(С)
Tmax
(С)
R
(мм)
R24
(мм)
S
(см)
21 16.05 штиль 0 4000 м мгла 6/4 480 м
[Sc As op Ci fib]
+24.5 +23.1 92 +33 +33 очень
душно
1010.5 1000.1
00 17.05 ЮЗ 1 5000 м мгла 8/0
[Ac trans Ci fib]
+24.2 +23.2 94 +32 +33 очень
душно
1011.0 1000.7 +24.1 0.8
03 17.05 ЮВ 4 10 км 5/1 <50 м
[Cu hum Ac trans Ci fib]
+30.8 +22.1 60 +40 +46 очень
душно
1012.5 1002.2
06 17.05 ЮВ 8 10 км 4/1 <50 м
[Cu med, cong Ci fib]
+32.8 +21.3 51 +41 +43 опасность
перегрева
1010.4 1000.0
09 17.05 ЮВ 6 10 км 4/1 <50 м
[Cu med, cong Ci fib]
+32.6 +18.8 44 +38 +39 очень
душно
1008.8 998.4
12 17.05 штиль 0 8000 м 4/1 450 м
[Sc Ci fib]
+28.7 +19.1 56 +34 +34 очень
душно
1010.4 1000.1 +33.2
15 17.05 ЮЗ 2 10 км 4/1 450 м
[Sc Ci fib]
+25.4 +21.3 78 +32 +32 очень
душно
1012.8 1002.5
18 17.05 штиль 0 10 км 5/3 450 м
[Sc Ci fib]
+23.7 +20.6 83 +30 +30 очень
душно
1011.6 1001.3
21 17.05 Ю 2 10 км 4/1 450 м
[Sc Ci fib]
+22.3 +20.6 90 +29 +29 очень
душно
1010.7 1000.4
00 18.05 штиль 0 7000 м 3/0
[Ci fib]
+22.1 +20.4 90 +28 +30 душно 1011.8 1001.4 +21.6
03 18.05 ЮЗ 1 10 км 3/0
[Ci fib]
+29.2 +22.2 66 +38 +53 опасность
солнечного
удара
1012.6 1002.2
06 18.05 СВ 3 10 км 8/5 <50 м
[Cu med, cong As op Ci fib]
+32.5 +22.0 54 +41 +47 опасность
перегрева
1009.9 999.5
09 18.05 В 4 10 км 9/5 <50 м
[Cu med, cong As op Ci fib]
+32.4 +21.9 54 +41 +42 опасность
перегрева
1008.3 998.0
12 18.05 В 3 10 км 4/1 600 м
[Sc Ci fib]
+28.2 +22.9 73 +38 +38 очень
душно
1009.9 999.5 +33.0
15 18.05 ЮВ 2 8000 м 6/1 600 м
[Sc Ac trans Ci fib]
+26.6 +23.1 81 +36 +36 очень
душно
1012.4 1002.0
18 18.05 ЮЗ 2 5000 м мгла 6/1 450 м
[Sc Ac trans Ci fib]
+25.2 +22.7 86 +33 +33 очень
душно
1012.0 1001.5
21 18.05 ЮЗ 2 4000 м мгла 6/1 450 м
[Sc Ac trans Ci fib]
+24.0 +22.3 90 +31 +31 очень
душно
1010.8 1000.6
00 19.05 ЮЗ 1 3000 м мгла 3/0
[Ci fib]
+23.7 +22.0 90 +31 +32 очень
душно
1011.8 1001.5 +21.8
03 19.05 ЮЗ 1 7000 м 6/3 <50 м
[Cu med, cong As op Ci fib]
+30.0 +23.9 70 +41 +50 опасность
перегрева
1013.1 1002.7
06 19.05 В 1 10 км 8/4 <50 м
[Cu med, cong As op Ci fib]
+32.6 +23.0 57 +43 +51 опасность
перегрева
1010.0 999.7
09 19.05 СВ 4 8000 м 8/4 420 м
[Sc As op Ci fib]
+31.4 +23.5 63 +42 +44 опасность
перегрева
1009.1 998.6
12 19.05 В 2 4000 м мгла 8/4 480 м
[Sc As op Ci fib]
+28.0 +24.0 79 +39 +39 очень
душно
1010.2 999.9 +32.2
15 19.05 штиль 0 3000 м дымка 6/3 480 м
[Sc As op Ci fib]
+27.0 +24.1 84 +37 +37 очень
душно
1012.7 1002.3
18 19.05 штиль 0 3000 м дымка 6/3 480 м
[Sc Ac trans Ci fib]
+25.6 +23.1 86 +34 +34 очень
душно
1011.4 1001.0
21 19.05 штиль 0 5000 м 10/5 450 м
[Sc As op]
+25.2 +23.3 89 +34 +34 очень
душно
1010.7 1000.3
00 20.05 Ю 2 2000 м дымка 10/6 400 м
[Sc As op Ci fib]
+25.2 +22.9 87 +33 +34 очень
душно
1011.9 1001.6 +23.6
03 20.05 ЮЗ 2 3000 м в посл. час дождь 10/6 <50 м
[Cb cap As op]
+26.2 +24.6 91 +37 +38 очень
душно
1013.0 1002.7 3
06 20.05 С 2 7000 м слаб. ливневой дождь, в посл. час гроза 10/5 <50 м
[Cb cap As op]
+24.6 +23.0 91 +33 +35 очень
душно
1011.7 1001.4 1
09 20.05 С 2 5000 м {дождь} 10/4 450 м
[Sc As op]
+26.6 +24.8 90 +38 +38 очень
душно
1010.9 1000.6 2
12 20.05 ЮЗ 1 6000 м {дождь} 10/5 420 м
[Sc As op]
+25.4 +23.5 89 +34 +34 очень
душно
1011.1 1000.7 +26.8 2
15 20.05 штиль 0 3000 м мгла 5/5 450 м
[]
+24.7 +23.7 94 +34 +34 очень
душно
1012.5 1002.1
18 20.05 ЮЗ 2 2000 м мгла 5/3 450 м
[Sc As op Ci fib]
+24.3 +23.4 95 +33 +33 очень
душно
1011.7 1001.3
21 20.05 штиль 0 3000 м мгла 3/0
[Ci fib]
+23.7 +22.7 94 +31 +31 очень
душно
1010.8 1000.4
00 21.05 ЮЗ 1 3000 м дымка 5/3 450 м
[Sc Ci fib]
+23.5 +22.7 95 +31 +32 очень
душно
1011.7 1001.3 +23.4 6
03 21.05 В 2 10 км 8/4 450 м
[Sc As op Ci fib]
+29.7 +24.1 72 +41 +47 опасность
перегрева
1012.8 1002.4
06 21.05 СВ 4 10 км 9/5 450 м
[Cu med, cong As op Ci fib]
+32.6 +24.4 62 +45 +48 опасность
перегрева
1010.2 999.9
09 21.05 В 5 10 км {дождь} 8/4 <50 м
[Cu med, cong As op Ci fib]
+31.0 +23.9 66 +43 +44 опасность
перегрева
1009.1 998.8 0.0
12 21.05 В 2 8000 м 6/4 480 м
[Sc As op Ci fib]
+28.2 +23.8 77 +39 +39 очень
душно
1010.2 999.8 +33.0 0.0
15 21.05 штиль 0 4000 м 5/3 480 м
[Sc As op Ci fib]
+26.2 +23.9 87 +36 +36 очень
душно
1012.3 1001.9
18 21.05 штиль 0 4000 м 6/3 480 м
[Sc As op Ci fib]
+24.6 +23.0 91 +33 +33 очень
душно
1012.0 1001.6
21 21.05 штиль 0 3000 м 6/3 480 м
[Sc As op Ci fib]
+23.9 +22.9 94 +32 +32 очень
душно
1011.1 1000.7
00 22.05 ЮЗ 1 2000 м дымка 4/3 480 м
[Sc Ac trans Ci fib]
+23.8 +22.8 94 +31 +32 очень
душно
1012.0 1001.7 +23.5
03 22.05 СВ 4 10 км 6/4 <50 м
[Cu med, cong Ac trans Ci fib]
+31.0 +24.4 68 +43 +48 опасность
перегрева
1012.6 1002.2
06 22.05 СВ 5 10 км 6/5 <50 м
[Cu med, cong Ci fib]
+33.0 +22.1 53 +42 +46 опасность
перегрева
1010.0 999.6
09 22.05 ЮВ 4 10 км 6/5 <50 м
[Cu med, cong Ci fib]
+32.5 +22.0 54 +41 +43 опасность
перегрева
1009.1 998.8
12 22.05 В 3 10 км 4/3 450 м
[Sc As op Ci fib]
+28.7 +23.6 74 +39 +39 очень
душно
1010.7 1000.4 +33.6
15 22.05 штиль 0 10 км 4/1 450 м
[Sc Ci fib]
+26.9 +23.8 83 +37 +37 очень
душно
1012.7 1002.4
18 22.05 штиль 0 8000 м 4/1 450 м
[Sc Ci fib]
+26.5 +24.0 86 +37 +37 очень
душно
1012.4 1002.1
21 22.05 штиль 0 6000 м 4/1 450 м
[Sc Ci fib]
+25.2 +23.6 91 +34 +34 очень
душно
1011.9 1001.6
00 23.05 З 1 2000 м мгла 3/0
[Ci fib]
+24.2 +23.0 93 +32 +33 очень
душно
1012.7 1002.3 +23.7
03 23.05 В 3 10 км 5/4 <50 м
[Cu med, cong Ci fib]
+30.6 +24.3 69 +43 +49 опасность
перегрева
1013.9 1003.5
06 23.05 ЮВ 3 10 км 9/5 <50 м
[Cu med, cong As op Ci fib]
+32.1 +22.5 57 +42 +46 опасность
перегрева
1011.3 1000.9
09 23.05 В 3 10 км 8/3 <50 м
[Cu med, cong As op Ci fib]
+31.6 +21.2 54 +39 +41 очень
душно
1010.0 999.6
12 23.05 В 2 10 км 8/3 450 м
[Sc As op Ci fib]
+28.2 +22.7 72 +37 +37 очень
душно
1010.6 1000.2 +33.6
15 23.05 штиль 0 8000 м 4/0
[As op Ci fib]
+26.8 +22.6 78 +35 +35 очень
душно
1012.4 1002.0
18 23.05 ЮЗ 2 8000 м 4/0
[Ci fib]
+24.4 +22.5 89 +32 +32 очень
душно
1011.8 1001.4

 

Местоположение метеостанции Танджунгкаранг (Индонезия): широта -5.10 долгота 105.18 высота над уровнем моря 96 м.

В архиве по умолчанию представлена погода в Танджунгкаранге за последнюю неделю. Архивные данные за месяц целиком и за предыдущие месяцы, начиная с января 2011 года, Вы можете получить, выбрав интересующий диапазон дат из раскрывающегося списка и нажав кнопку "Ввод!".


*Определитесь, кто Вы:
робот инопланетянин человек

Внимание! Время в таблицах - всемирное. Для получения местного времени необходимо прибавить поправку, которая равна 7 ч.

Смотрите также архив погоды в соседних городах и на ближайших метеорологических станциях:

Погода в Серанге (Индонезия) (155 км)
Погода в Аэропорту Сукарно-Хатта (Индонезия) (198 км)
Погода в Чуруге (Индонезия) (206 км)
Погода в Джакарта порту (Индонезия) (218 км)
Погода в Джакарте (Индонезия) (219 км)
Погода в Палембанге (Индонезия) (250 км)
Погода в Цитеко (Индонезия) (263 км)
Погода в Бандунге (Индонезия) (333 км)
Погода в Панкалпинанге (Индонезия) (343 км)
Погода в Бенкулу (Индонезия) (344 км)

Пояснения к столбцам:

Ветер - указаны скорость ветра в м/с - средняя за 10 мин, порывы в срок и между сроками (в фигурных скобках) и направление, откуда дует ветер: С - северный, СВ - северо-восточный, В - восточный, ЮВ - юго-восточный, Ю - южный, ЮЗ - юго-западный, З - западный, СЗ - северо-западный.
Видимость - горизонтальная дальность видимости в метрах или километрах. При видимости от 1 до 10 км при отсутствии осадков обычно наблюдается дымка, при ухудшении видимости до 1 км и менее - туман. В сухую погоду видимость может ухудшаться дымом, пылью или мглою.
Явления - указаны атмосферные явления, наблюдавшиеся в срок или в последний час перед сроком; фигурными скобками обозначены явления, наблюдавшиеся между сроками (за 1-3 часа до срока); квадратными скобками обозначены град или гололедные отложения с указанием их диаметра в мм.
Облачность - указаны через наклонную черту общая и нижняя облачность в баллах и высота нижней границы облаков в метрах; квадратными скобками обозначены формы облаков: Ci - перистые, Cs - перисто-слоистые, Cc - перисто-кучевые, Ac - высококучевые, As - высокослоистые, Sc - слоисто-кучевые, Ns - слоисто-дождевые, Cu - кучевые, Cb - кучево-дождевые. Подробнее классификацию облаков см. в Атласе облаков (PDF).
T - Температура воздуха - температура, измеренная на высоте 2 м над землей.
Td - Температура точки росы - температура, при понижении до которой содержащийся в воздухе водяной пар достигнет насыщения.
f - Относительная влажность воздуха - влажноcть воздуха, измеренная на высоте 2 м над землей.
Te - Эффективная температура - температура, которую ощущает одетый по сезону человек в тени. Характеристика душности погоды. При расчете учитывается влияние влажности воздуха и скорости ветра на теплоощущения человека.
Tes - Эффективная температура на солнце - температура, которую ощущает человек, с поправкой на солнечный нагрев. Характеристика знойности погоды. Зависит от высоты солнца над горизонтом, облачности и скорости ветра. Ночью, в пасмурную погоду, а также при ветре 12 м/с и более поправка равна нулю.
P - Атмосферное давление - приведенное к уровню моря атмосферное давление.
Po - Атмосферное давление - измеренное на уровне метеостанции атмосферное давление.
Tmin - Минимальная температура - минимум температуры воздуха на высоте 2 м над землей.
Tmax - Максимальная температура - максимум температуры воздуха на высоте 2 м над землей.
R - Количество осадков - Количество выпавших осадков за период времени, мм. При наведении курсора мыши на число - период времени, за который выпало указанное количество осадков.
R24 - Количество осадков - Количество выпавших осадков за 24 часа, мм.
S - Снежный покров - Высота снежного покрова, см. При наведении курсора мыши на число - состояние снежного покрова и степень покрытия местности в баллах.